Location: Devore Heights
(34.2372°N, 117.4156°W)
Time: 01:18:25
(UTC+00:00)

Altair - Pass Details

Date: 16 September 2024
Orbit: 1501 x 1682 km, 47.2° (Epoch: 09 October)

Event Time Altitude Azimuth Distance (km) Brightness Sun altitude
Exits shadow 09:17:18 44° 66° (ENE) 2,183 8.3 -47.4°
Drops below altitude 10° 09:23:36 10° 56° (ENE) 3,943 10.1 -46.6°
Sets 09:26:47 0° 55° (NE) 4,937 10.8 -46.2°
